KF5CME Weather Reports


time (UTC)temp
C
wind
direction
speed
KPH
gust
KPH
rain 1hr
cm
rain 24hr
cm
rain mn
cm
humidity
%
barometer
mb
20260505183040 27 202 3.2 9.7 0.00 0.00 0.00 67 1005.3
20260505182518 27 228 3.2 9.7 0.00 0.00 0.00 67 1005.3
20260505182018 27 83 3.2 16.1 0.00 0.00 0.00 67 1005.2
20260505181538 27 197 3.2 16.1 0.00 0.00 0.00 69 1005.4
20260505181020 26 199 3.2 12.9 0.00 0.00 0.00 70 1005.4
20260505180520 27 194 3.2 14.5 0.00 0.00 0.00 68 1005.3
20260505180045 27 197 3.2 14.5 0.00 0.00 0.00 68 1005.5
20260505175518 27 269 3.2 16.1 0.00 0.00 0.00 67 1005.5
20260505175020 27 86 3.2 16.1 0.00 0.00 0.00 68 1005.4
20260505174542 27 259 4.8 16.1 0.00 0.00 0.00 67 1005.4
20260505174020 27 343 3.2 9.7 0.00 0.00 0.00 68 1005.4
20260505173523 27 152 3.2 14.5 0.00 0.00 0.00 69 1005.3
20260505173037 26 165 3.2 14.5 0.00 0.00 0.00 69 1005.6
20260505172519 26 278 3.2 14.5 0.00 0.00 0.00 69 1005.7
20260505172017 26 106 3.2 11.3 0.00 0.00 0.00 69 1005.6
20260505171538 26 285 3.2 11.3 0.00 0.00 0.00 71 1005.6
20260505171020 26 215 3.2 22.5 0.00 0.00 0.00 70 1005.7
20260505170518 26 278 4.8 22.5 0.00 0.00 0.00 70 1005.6
20260505170037 26 193 3.2 12.9 0.00 0.00 0.00 70 1005.7
20260505165518 26 190 3.2 9.7 0.00 0.00 0.00 69 1005.8
20260505165019 26 100 3.2 14.5 0.00 0.00 0.00 71 1005.8
20260505164537 26 12 3.2 14.5 0.00 0.00 0.00 71 1005.6
20260505164018 25 277 4.8 12.9 0.00 0.00 0.00 72 1005.6
20260505163520 25 7 1.6 12.9 0.00 0.00 0.00 73 1005.4
20260505163042 25 195 3.2 11.3 0.00 0.00 0.00 72 1005.2
20260505162521 25 236 3.2 14.5 0.00 0.00 0.00 72 1005.3
20260505162022 25 215 4.8 16.1 0.00 0.00 0.00 72 1005.3
20260505161538 25 149 4.8 16.1 0.00 0.00 0.00 73 1005.3
20260505161021 25 252 3.2 14.5 0.00 0.00 0.00 74 1005.2
20260505160521 25 125 3.2 14.5 0.00 0.00 0.00 74 1005.3
20260505153038 23 196 4.8 16.1 0.00 0.00 0.00 76 1005.5
20260505152518 23 199 4.8 16.1 0.00 0.00 0.00 76 1005.6
20260505152024 23 92 1.6 16.1 0.00 0.00 0.00 77 1005.6
20260505151559 23 320 3.2 16.1 0.00 0.00 0.00 77 1005.7
20260505151023 23 172 3.2 11.3 0.00 0.00 0.00 77 1005.5
20260505150522 23 198 3.2 11.3 0.00 0.00 0.00 77 1005.5
20260505140522 22 181 1.6 11.3 0.00 0.00 0.00 81 1005.6
20260505125023 21 168 3.2 11.3 0.00 0.00 0.00 83 1005.2
20260505124543 21 177 1.6 6.4 0.00 0.00 0.00 83 1005.3
20260505124021 21 0 1.6 12.9 0.00 0.00 0.00 83 1005.3
20260505123523 21 323 1.6 12.9 0.00 0.00 0.00 83 1005.1
20260505123049 21 238 1.6 6.4 0.00 0.00 0.00 83 1005.1
20260505122519 21 104 1.6 6.4 0.00 0.00 0.00 83 1005.1
20260505122022 21 198 1.6 12.9 0.00 0.00 0.00 83 1005.0
20260505121612 21 298 0.0 12.9 0.00 0.00 0.00 83 1004.9
20260505121021 21 0 1.6 12.9 0.00 0.00 0.00 83 1004.9
20260505120522 21 265 1.6 6.4 0.00 0.00 0.00 83 1004.7
20260505120037 21 260 1.6 8.0 0.00 0.00 0.00 83 1004.9
20260505115522 21 270 1.6 8.0 0.00 0.00 0.00 83 1004.7
20260505115020 21 253 3.2 8.0 0.00 0.00 0.00 83 1004.6
20260505114541 21 243 1.6 11.3 0.00 0.00 0.00 83 1004.6
20260505114020 21 253 1.6 11.3 0.00 0.00 0.00 83 1004.4
20260505113520 21 113 3.2 17.7 0.00 0.00 0.00 83 1004.5
20260505113038 21 28 3.2 17.7 0.00 0.00 0.00 83 1004.6
20260505112520 21 269 3.2 17.7 0.00 0.00 0.00 83 1004.4
20260505112019 21 192 1.6 6.4 0.00 0.00 0.00 83 1004.3
20260505111540 21 275 1.6 6.4 0.00 0.00 0.00 83 1004.3
20260505111022 21 210 1.6 11.3 0.00 0.00 0.00 83 1004.4
20260505110522 21 311 1.6 11.3 0.00 0.00 0.00 82 1004.5
20260505102019 21 78 1.6 6.4 0.00 0.00 0.00 82 1004.6
20260505101542 21 333 1.6 6.4 0.00 0.00 0.00 82 1004.6
20260505101023 21 223 1.6 8.0 0.00 0.00 0.00 82 1004.7
20260505100520 21 228 3.2 8.0 0.00 0.00 0.00 82 1004.8
20260505100046 21 266 1.6 8.0 0.00 0.00 0.00 82 1004.7
20260505095524 21 225 3.2 9.7 0.00 0.00 0.00 82 1004.9
20260505095022 21 50 1.6 9.7 0.00 0.00 0.00 82 1004.9
20260505094541 21 252 1.6 6.4 0.00 0.00 0.00 82 1004.9
20260505094022 21 238 1.6 16.1 0.00 0.00 0.00 82 1004.9
20260505093523 21 298 3.2 16.1 0.00 0.00 0.00 82 1004.8
20260505093046 21 187 3.2 12.9 0.00 0.00 0.00 82 1004.9
20260505092522 21 265 3.2 12.9 0.00 0.00 0.00 82 1005.0
20260505092019 21 186 3.2 12.9 0.00 0.00 0.00 82 1004.9
20260505091552 21 19 3.2 14.5 0.00 0.00 0.00 82 1004.7
20260505091021 21 176 4.8 22.5 0.00 0.00 0.00 82 1004.8
20260505090522 21 246 3.2 22.5 0.00 0.00 0.00 82 1004.6
20260505090053 21 202 3.2 22.5 0.00 0.00 0.00 83 1004.7
20260505085522 21 215 3.2 12.9 0.00 0.00 0.00 82 1004.8
20260505085024 21 254 3.2 12.9 0.00 0.00 0.00 83 1004.8
20260505084538 21 302 3.2 11.3 0.00 0.00 0.00 83 1004.7
20260505084019 21 256 1.6 8.0 0.00 0.00 0.00 83 1004.7
20260505083522 20 202 3.2 11.3 0.00 0.00 0.00 83 1004.8
20260505083047 20 202 3.2 11.3 0.00 0.00 0.00 83 1004.7
20260505082523 20 162 3.2 11.3 0.00 0.00 0.00 83 1004.7
20260505082020 20 158 3.2 12.9 0.00 0.00 0.00 82 1004.7
20260505081542 20 253 3.2 12.9 0.00 0.00 0.00 82 1004.8
20260505081020 20 215 3.2 9.7 0.00 0.00 0.00 82 1004.8
20260505080521 20 215 1.6 6.4 0.00 0.00 0.00 82 1004.9
20260505080045 20 210 3.2 11.3 0.00 0.00 0.00 82 1005.0
20260505075520 20 0 1.6 11.3 0.00 0.00 0.00 82 1005.2
20260505075020 20 232 1.6 6.4 0.00 0.00 0.00 82 1005.1
20260505074534 21 261 1.6 8.0 0.00 0.00 0.00 81 1005.2
20260505074025 21 253 3.2 16.1 0.00 0.00 0.00 81 1005.3
20260505073520 21 287 1.6 16.1 0.00 0.00 0.00 81 1005.3
20260505073050 21 185 3.2 12.9 0.00 0.00 0.00 81 1005.3
20260505072519 21 276 3.2 17.7 0.00 0.00 0.00 81 1005.3
20260505072016 21 237 3.2 17.7 0.00 0.00 0.00 80 1005.3
20260505071543 21 249 3.2 16.1 0.00 0.00 0.00 80 1005.3
20260505071022 21 245 3.2 9.7 0.00 0.00 0.00 80 1005.5
20260505070521 21 327 3.2 11.3 0.00 0.00 0.00 80 1005.5
20260505070038 21 316 3.2 19.3 0.00 0.00 0.00 79 1005.4
20260505065517 21 210 1.6 19.3 0.00 0.00 0.00 79 1005.5
20260505065020 21 269 3.2 12.9 0.00 0.00 0.00 79 1005.4
20260505064537 21 268 3.2 9.7 0.00 0.00 0.00 79 1005.6
20260505064020 21 86 3.2 11.3 0.00 0.00 0.00 79 1005.7
20260505063519 21 0 1.6 11.3 0.00 0.00 0.00 79 1005.7
20260505063046 21 315 1.6 11.3 0.00 0.00 0.00 78 1005.7
20260505062522 21 210 1.6 8.0 0.00 0.00 0.00 78 1005.9
20260505062026 21 227 1.6 8.0 0.00 0.00 0.00 78 1005.8
20260505061541 21 233 3.2 8.0 0.00 0.00 0.00 78 1006.0
20260505061026 21 348 1.6 14.5 0.00 0.00 0.00 77 1005.9
20260505060522 21 245 3.2 14.5 0.00 0.00 0.00 77 1005.9
20260505060042 21 31 1.6 8.0 0.00 0.00 0.00 77 1005.9
20260505055520 21 74 1.6 9.7 0.00 0.00 0.00 77 1006.1
20260505055022 21 196 3.2 9.7 0.00 0.00 0.00 76 1006.1
20260505054609 21 180 1.6 9.7 0.00 0.00 0.00 76 1006.1
20260505054022 21 156 3.2 9.7 0.00 0.00 0.00 76 1006.2
20260505053521 21 215 3.2 11.3 0.00 0.00 0.00 76 1006.2
20260505053045 22 256 3.2 11.3 0.00 0.00 0.00 76 1006.3
20260505052522 22 202 3.2 14.5 0.00 0.00 0.00 75 1006.4
20260505052024 22 191 3.2 14.5 0.00 0.00 0.00 75 1006.4
20260505051542 22 161 1.6 11.3 0.00 0.00 0.00 75 1006.4
20260505051021 22 220 3.2 12.9 0.00 0.00 0.00 75 1006.5
20260505050525 22 189 1.6 12.9 0.00 0.00 0.00 74 1006.5
20260505041548 21 29 1.6 8.0 0.00 0.00 0.00 73 1006.7
20260505041019 21 263 1.6 4.8 0.00 0.00 0.00 74 1006.7
20260505040520 21 352 1.6 4.8 0.00 0.00 0.00 74 1006.6
20260505040042 21 166 1.6 6.4 0.00 0.00 0.00 74 1006.6
20260505035524 21 232 1.6 6.4 0.00 0.00 0.00 73 1006.6
20260505035022 21 7 0.0 9.7 0.00 0.00 0.00 73 1006.6
20260505034537 21 231 1.6 9.7 0.00 0.00 0.00 73 1006.7
20260505034025 21 129 1.6 4.8 0.00 0.00 0.00 73 1006.8
20260505033519 21 215 1.6 6.4 0.00 0.00 0.00 72 1006.9
20260505033041 22 192 0.0 6.4 0.00 0.00 0.00 72 1006.9
20260505032522 22 215 1.6 6.4 0.00 0.00 0.00 71 1006.9
20260505032019 22 215 0.0 3.2 0.00 0.00 0.00 71 1006.9
20260505031543 22 202 0.0 3.2 0.00 0.00 0.00 71 1006.9
20260505031022 22 171 0.0 3.2 0.00 0.00 0.00 71 1007.0
20260505030519 22 0 0.0 3.2 0.00 0.00 0.00 71 1007.1
20260505030056 22 0 0.0 3.2 0.00 0.00 0.00 70 1007.0
20260505025524 22 198 0.0 4.8 0.00 0.00 0.00 70 1006.9
20260505025020 22 0 0.0 4.8 0.00 0.00 0.00 70 1006.8
20260505024537 22 167 0.0 6.4 0.00 0.00 0.00 70 1006.9
20260505024022 22 175 1.6 6.4 0.00 0.00 0.00 69 1006.7
20260505023521 22 192 0.0 4.8 0.00 0.00 0.00 69 1006.7
20260505023037 22 184 0.0 4.8 0.00 0.00 0.00 69 1006.6
20260505022523 22 154 1.6 4.8 0.00 0.00 0.00 68 1006.8
20260505022022 22 193 0.0 3.2 0.00 0.00 0.00 68 1006.7
20260505021550 22 79 0.0 4.8 0.00 0.00 0.00 68 1006.7
20260505021022 22 0 0.0 4.8 0.00 0.00 0.00 68 1006.7
20260505020519 22 183 0.0 4.8 0.00 0.00 0.00 67 1006.8
20260505020052 22 255 1.6 4.8 0.00 0.00 0.00 67 1006.6
20260505015520 22 228 0.0 9.7 0.00 0.00 0.00 67 1006.7
20260505015023 22 188 1.6 9.7 0.00 0.00 0.00 67 1006.7
20260505014540 23 215 1.6 3.2 0.00 0.00 0.00 67 1006.7
20260505014021 23 186 0.0 4.8 0.00 0.00 0.00 67 1006.6
20260505013521 23 170 0.0 4.8 0.00 0.00 0.00 66 1006.8
20260505013037 23 286 1.6 4.8 0.00 0.00 0.00 66 1006.7
20260505012521 23 0 1.6 11.3 0.00 0.00 0.00 66 1006.7
20260505012023 23 322 1.6 11.3 0.00 0.00 0.00 65 1006.7
20260505011537 23 198 1.6 6.4 0.00 0.00 0.00 65 1006.7
20260505011022 23 167 0.0 6.4 0.00 0.00 0.00 65 1006.6
20260505010519 23 197 1.6 6.4 0.00 0.00 0.00 64 1006.7
20260505010059 23 234 1.6 4.8 0.00 0.00 0.00 64 1006.7
20260505005519 23 265 1.6 9.7 0.00 0.00 0.00 64 1006.4
20260505005021 23 187 1.6 9.7 0.00 0.00 0.00 63 1006.5
20260505004539 23 221 1.6 9.7 0.00 0.00 0.00 63 1006.7
20260505004019 24 136 1.6 12.9 0.00 0.00 0.00 62 1006.6
20260505003518 24 228 1.6 12.9 0.00 0.00 0.00 62 1006.7
20260505003047 24 0 1.6 8.0 0.00 0.00 0.00 61 1006.8
20260505002522 24 0 0.0 11.3 0.00 0.00 0.00 61 1006.8
20260505002019 25 202 1.6 11.3 0.00 0.00 0.00 61 1006.7
20260505001540 25 0 1.6 9.7 0.00 0.00 0.00 60 1006.7
20260505001023 25 215 1.6 6.4 0.00 0.00 0.00 60 1006.7
20260505000521 25 223 0.0 6.4 0.00 0.00 0.00 59 1006.9
20260505000043 25 210 1.6 11.3 0.00 0.00 0.00 59 1006.8
20260504235522 25 250 3.2 11.3 0.00 0.00 0.00 58 1006.9
20260504235022 25 225 1.6 8.0 0.00 0.00 0.00 59 1006.8
20260504234545 25 172 3.2 8.0 0.00 0.00 0.00 58 1006.8
20260504234022 25 187 1.6 9.7 0.00 0.00 0.00 59 1006.9
20260504233519 25 230 1.6 11.3 0.00 0.00 0.00 57 1006.9
20260504233049 25 256 3.2 11.3 0.00 0.00 0.00 56 1007.0
20260504232522 25 194 1.6 14.5 0.00 0.00 0.00 55 1007.0
20260504232022 26 170 3.2 14.5 0.00 0.00 0.00 55 1007.1
20260504231538 26 78 1.6 12.9 0.00 0.00 0.00 55 1007.2
20260504231018 26 314 3.2 12.9 0.00 0.00 0.00 54 1007.2
20260504230525 26 210 3.2 12.9 0.00 0.00 0.00 54 1007.3
20260504230046 26 125 3.2 11.3 0.00 0.00 0.00 54 1007.3
20260504225523 26 331 1.6 11.3 0.00 0.00 0.00 53 1007.3
20260504225019 26 254 3.2 11.3 0.00 0.00 0.00 53 1007.2
20260504224550 26 175 1.6 8.0 0.00 0.00 0.00 52 1007.2
20260504224018 26 174 3.2 11.3 0.00 0.00 0.00 53 1007.4
20260504223519 26 83 1.6 11.3 0.00 0.00 0.00 52 1007.3
20260504223039 26 197 3.2 11.3 0.00 0.00 0.00 53 1007.4
20260504222522 26 175 3.2 14.5 0.00 0.00 0.00 52 1007.3
20260504222023 26 130 3.2 14.5 0.00 0.00 0.00 52 1007.4
20260504221539 26 184 3.2 12.9 0.00 0.00 0.00 51 1007.6
20260504221024 26 215 3.2 12.9 0.00 0.00 0.00 52 1007.6
20260504220519 26 259 1.6 8.0 0.00 0.00 0.00 52 1007.7
20260504220040 26 190 3.2 8.0 0.00 0.00 0.00 51 1007.6
20260504215524 26 259 3.2 8.0 0.00 0.00 0.00 52 1007.8
20260504215022 26 246 3.2 11.3 0.00 0.00 0.00 51 1007.9
20260504214547 26 144 1.6 11.3 0.00 0.00 0.00 52 1007.9
20260504214022 26 96 3.2 12.9 0.00 0.00 0.00 49 1008.0
20260504213518 26 119 3.2 12.9 0.00 0.00 0.00 50 1008.1
20260504213040 26 271 3.2 8.0 0.00 0.00 0.00 49 1008.1
20260504212520 26 153 1.6 9.7 0.00 0.00 0.00 49 1008.2
20260504212019 26 235 1.6 9.7 0.00 0.00 0.00 49 1008.3
20260504211538 26 336 1.6 9.7 0.00 0.00 0.00 49 1008.3
20260504211022 26 200 3.2 12.9 0.00 0.00 0.00 49 1008.3
20260504210522 27 242 3.2 12.9 0.00 0.00 0.00 47 1008.5
20260504210052 27 135 3.2 11.3 0.00 0.00 0.00 46 1008.5
20260504205522 27 84 1.6 16.1 0.00 0.00 0.00 47 1008.8
20260504205026 27 252 4.8 16.1 0.00 0.00 0.00 45 1008.7
20260504204546 27 329 3.2 20.9 0.00 0.00 0.00 45 1008.8
20260504204021 27 156 4.8 20.9 0.00 0.00 0.00 44 1009.0
20260504203521 27 269 3.2 11.3 0.00 0.00 0.00 46 1009.1
20260504203042 27 229 1.6 11.3 0.00 0.00 0.00 47 1009.3
20260504202522 27 254 3.2 11.3 0.00 0.00 0.00 45 1009.5
20260504202019 27 116 3.2 11.3 0.00 0.00 0.00 44 1009.5
20260504201544 27 159 3.2 19.3 0.00 0.00 0.00 44 1009.6
20260504201021 27 225 1.6 19.3 0.00 0.00 0.00 46 1009.7
20260504200522 26 183 3.2 19.3 0.00 0.00 0.00 44 1009.8
20260504200050 26 347 3.2 11.3 0.00 0.00 0.00 46 1009.9
20260504195521 26 180 3.2 16.1 0.00 0.00 0.00 45 1009.9
20260504195019 26 188 3.2 20.9 0.00 0.00 0.00 46 1010.1
20260504194539 26 226 3.2 20.9 0.00 0.00 0.00 45 1010.0
20260504194022 26 215 4.8 12.9 0.00 0.00 0.00 43 1010.1
20260504193524 26 102 3.2 16.1 0.00 0.00 0.00 45 1010.2
20260504193042 26 202 3.2 16.1 0.00 0.00 0.00 45 1010.4
20260504192521 26 215 3.2 9.7 0.00 0.00 0.00 45 1010.7
20260504192018 26 202 1.6 14.5 0.00 0.00 0.00 45 1010.6
20260504191538 26 198 3.2 14.5 0.00 0.00 0.00 44 1010.6
20260504191023 26 242 3.2 14.5 0.00 0.00 0.00 44 1010.7
20260504190522 26 252 3.2 14.5 0.00 0.00 0.00 46 1010.8
20260504190040 26 273 3.2 14.5 0.00 0.00 0.00 45 1010.8
20260504185517 26 230 4.8 14.5 0.00 0.00 0.00 45 1010.7
20260504185022 26 0 1.6 12.9 0.00 0.00 0.00 47 1010.8
20260504184540 26 190 3.2 9.7 0.00 0.00 0.00 45 1010.9
20260504184021 25 332 3.2 16.1 0.00 0.00 0.00 47 1010.9
20260504183520 25 304 3.2 16.1 0.00 0.00 0.00 47 1011.2